Location: Asheville, NC
(35.6000°N, 82.5500°W)
Time: 16:40:36
(UTC-05:00)

XW-2B - Pass Details

Date: 12 January 2018
Orbit: 511 x 530 km, 97.5° (Epoch: 18 January)

Event Time Altitude Azimuth Distance (km) Brightness Sun altitude
Rises 05:54:08 0° 26° (NNE) 2,643 ? -21.1°
Reaches altitude 10° 05:56:32 10° 40° (NE) 1,747 ? -20.6°
Maximum altitude 05:59:39 24° 96° (E) 1,082 ? -20.0°
Drops below altitude 10° 06:02:45 10° 152° (SSE) 1,728 ? -19.4°
Sets 06:05:06 0° 166° (SSE) 2,606 ? -18.9°
